Terminal Aerodrome Forecast
Issued by NWS Mt. Holly, NJ

Home | Current Version | Previous Version | Text Only | Print | Product List | Glossary On
Versions: 1 2 3 4 5 6 7 8 9 10 11 12 13 14 15 16 17 18 19 20 21 22 23 24 25 26 27 28 29 30 31 32 33 34 35 36 37 38 39 40 41 42 43 44 45 46 47 48 49 50
228
FTUS41 KPHI 242330
TAFABE
TAF
KABE 242330Z 2500/2524 31014G24KT P6SM SCT025 OVC050
      TEMPO 2500/2503 BKN025
     FM250300 31012G22KT P6SM BKN035
     FM250900 30010KT P6SM SCT025
      TEMPO 2509/2513 BKN025
     FM251300 29010G18KT P6SM SCT040
     FM252000 26008KT P6SM FEW050 BKN200=

USA.gov is the U.S. government's official web portal to all federal, state and local government web resources and services.